[[{"header":{"parameterUnit":"m.s-1","parameterCategory":1,"la1":30.2991,"la2":30.254,"lo1":-89.0895,"lo2":-89.0444,"dy":0.0017,"dx":0.0017,"nx":28,"ny":28,"refTime":"2025-06-01T09:00:00:Z","depth":0,"parameterNumber":2,"parameterNumberName":"U-component_of_WINDS"},"data":[0,0,0,0,0,0,0,0,0,0,0,0,0,0,0,0,0,0,0,0,0,0,0,0,0,0,0,0,0,0,0,0,0,0,0,0,0,0,0,0,0,0,0,0,0,0,0,0,0,0,0,0,0,0,0,0,0,0,-1.0959,-1.0959,0,-1.1038,-1.1039,-1.104,-1.1055,-1.1055,-1.1054,-1.1054,-1.1135,-1.1138,-1.114,0,0,0,0,0,0,0,0,0,0,0,0,0,-1.082,-1.0823,-1.0959,-1.096,-1.0961,-1.1038,-1.1039,-1.104,-1.1056,-1.1055,-1.1054,-1.1053,-1.1134,-1.1137,-1.1141,0,0,0,0,0,0,0,0,0,0,0,0,0,-1.0888,-1.0824,-1.0958,-1.0978,-1.098,-1.1038,-1.1039,-1.104,-1.1056,-1.1055,-1.1054,-1.1053,-1.1133,-1.1137,-1.1141,-1.1185,0,0,-1.1154,-1.1156,0,0,0,0,0,0,0,0,-1.0884,-1.0893,-1.0974,-1.0976,-1.0979,-1.1036,-1.102,-1.1089,-1.1056,-1.1027,-1.1054,-1.1053,-1.1103,-1.1109,-1.1126,-1.1189,-1.1193,-1.1154,-1.1157,-1.1158,-1.116,0,0,0,0,0,0,0,-1.088,-1.089,-1.099,-1.0975,-1.0978,-1.0982,-1.0991,-1.1033,-1.1069,-1.1029,-1.1031,-1.104,-1.1104,-1.1122,-1.1128,-1.1194,-1.1154,-1.1158,-1.116,-1.1162,-1.1297,-1.1298,0,0,0,0,0,0,-1.0871,-1.0886,-1.0987,-1.0992,-1.0929,-1.0986,-1.0995,-1.1019,-1.1069,-1.1076,-1.1041,-1.104,-1.1116,-1.1124,-1.1131,-1.1186,-1.1158,-1.1162,-1.1165,-1.1296,-1.1297,-1.1298,0,0,0,0,0,0,-1.0868,-1.088,-1.0984,-1.094,-1.0953,-1.0989,-1.1015,-1.1021,-1.1039,-1.1077,-1.1084,-1.1053,-1.1115,-1.1125,-1.1172,-1.1189,-1.1164,-1.1168,-1.1294,-1.1296,-1.1298,-1.1296,0,0,0,0,0,0,-1.0864,-1.0879,-1.0896,-1.094,-1.0955,-1.1023,-1.1016,-1.1023,-1.1046,-1.1046,-1.109,-1.1097,-1.1115,-1.1165,-1.1176,-1.1194,-1.1171,-1.1293,-1.1295,-1.1297,-1.1295,-1.1298,-1.13,0,0,0,0,0,-1.0859,-1.0893,-1.0897,-1.0909,-1.0977,-1.1024,-1.1033,-1.1054,-1.1047,-1.1065,-1.1089,-1.1095,-1.1186,-1.117,-1.1182,-1.1202,-1.1292,-1.1294,-1.1297,-1.1294,-1.1297,-1.13,0,0,0,0,0,0,-1.085,-1.0899,-1.0904,-1.0952,-1.0984,-1.1027,-1.1049,-1.1057,-1.1091,-1.109,-1.1115,-1.1125,-1.1169,-1.119,-1.1172,-1.1247,-1.1238,-1.1243,-1.1232,-1.1235,-1.1238,-1.1232,-1.1174,0,0,0,0,0,-1.0854,-1.0888,-1.0928,-1.0967,-1.0983,-1.1013,-1.1034,-1.1048,-1.1082,-1.1095,-1.1123,-1.1156,-1.1192,-1.1215,-1.125,-1.1298,-1.1308,-1.1318,-1.132,-1.1322,-1.1326,-1.1353,-1.1358,-1.1306,-1.1306,-1.1306,0,0,-1.0861,-1.0892,-1.0912,-1.0966,-1.0992,-1.1027,-1.1024,-1.1061,-1.1087,-1.1101,-1.1146,-1.1168,-1.1206,-1.1253,-1.1276,-1.1272,-1.1343,-1.1325,-1.1327,-1.133,-1.1356,-1.1361,-1.1365,-1.1308,-1.1308,-1.1307,0,0,-1.0893,-1.092,-1.0955,-1.0981,-1.1021,-1.1041,-1.105,-1.1091,-1.1106,-1.1152,-1.1163,-1.1195,-1.1256,-1.1283,-1.1304,-1.1346,-1.1353,-1.1357,-1.137,-1.1396,-1.1401,-1.1404,-1.1419,-1.1424,-1.1361,-1.1361,-1.1361,0,-1.0898,-1.095,-1.0972,-1.1009,-1.1032,-1.1046,-1.1082,-1.1106,-1.1155,-1.1171,-1.1167,-1.1244,-1.1271,-1.1324,-1.1335,-1.1352,-1.1362,-1.1352,-1.1398,-1.1402,-1.1406,-1.1421,-1.1426,-1.1361,-1.1361,-1.1361,-1.1361,0,-1.0954,-1.099,-1.1014,-1.1061,-1.1087,-1.1123,-1.115,-1.1174,-1.1186,-1.1206,-1.1253,-1.1285,-1.1327,-1.1341,-1.1352,-1.1397,-1.1393,-1.1393,-1.1385,-1.1411,-1.1425,-1.1431,-1.1361,-1.1361,-1.1361,-1.1361,0,0,-1.0982,-1.1041,-1.1049,-1.1071,-1.1116,-1.1144,-1.1181,-1.1222,-1.1242,-1.1275,-1.1307,-1.1358,-1.1358,-1.1383,-1.1397,-1.142,-1.1452,-1.1417,-1.1419,-1.1423,-1.1502,-1.1502,-1.1508,-1.1456,-1.1457,-1.1458,-1.1499,0,-1.1019,-1.1085,-1.1105,-1.116,-1.1194,-1.1208,-1.124,-1.1271,-1.1292,-1.1323,-1.1346,-1.1382,-1.138,-1.1395,-1.1418,-1.1443,-1.1468,-1.144,-1.1486,-1.1487,-1.1475,-1.1516,-1.1515,-1.1552,-1.1505,-1.1506,-1.1506,0,-1.1071,-1.1105,-1.1163,-1.1204,-1.1219,-1.1247,-1.1287,-1.1317,-1.1353,-1.1366,-1.1393,-1.1406,-1.1445,-1.1434,-1.1488,-1.1469,-1.1489,-1.1504,-1.1506,-1.1511,-1.1498,-1.1521,-1.1565,-1.157,-1.1515,-1.1515,-1.1514,0,-1.1085,-1.1146,-1.1188,-1.1207,-1.1255,-1.1275,-1.1296,-1.1331,-1.1354,-1.1389,-1.1404,-1.1443,-1.1464,-1.1493,-1.1516,-1.1506,-1.1568,-1.156,-1.158,-1.158,-1.1593,-1.1591,-1.1639,-1.1606,-1.1606,-1.1605,-1.1605,0,-1.1124,-1.1159,-1.1195,-1.1222,-1.1262,-1.1285,-1.1324,-1.1346,-1.1377,-1.1408,-1.1422,-1.1451,-1.148,-1.1512,-1.153,-1.1572,-1.1582,-1.1593,-1.1598,-1.1592,-1.1591,-1.1605,-1.1603,-1.1607,-1.1607,-1.1606,-1.1606,0,-1.1146,-1.1172,-1.122,-1.1262,-1.1274,-1.1301,-1.1337,-1.1363,-1.1385,-1.1423,-1.1434,-1.1467,-1.1506,-1.1532,-1.1582,-1.1594,-1.164,-1.1644,-1.1628,-1.163,-1.1649,-1.1647,-1.1708,-1.1717,-1.1677,-1.1678,-1.1678,0,-1.1169,-1.1196,-1.1242,-1.1263,-1.1285,-1.132,-1.1344,-1.1368,-1.1393,-1.1436,-1.1457,-1.1497,-1.153,-1.1592,-1.162,-1.1658,-1.1663,-1.1682,-1.1669,-1.1663,-1.1663,-1.1661,-1.1664,-1.1684,-1.1684,-1.1685,-1.1685,0,-1.1207,-1.1218,-1.1253,-1.1291,-1.132,-1.1351,-1.1383,-1.14,-1.1431,-1.1457,-1.1497,-1.1523,-1.1574,-1.1614,-1.1655,-1.1677,-1.1686,-1.1689,-1.1696,-1.169,-1.1679,-1.1685,-1.1633,-1.1687,-1.1687,-1.1687,-1.1687,-1.1687,-1.123,-1.1255,-1.1291,-1.1329,-1.1355,-1.1385,-1.1411,-1.1436,-1.147,-1.1513,-1.1526,-1.1568,-1.1603,-1.1659,-1.1682,-1.1715,-1.1713,-1.1723,-1.1725,-1.1727,-1.1727,-1.1674,-1.1723,-1.1723,-1.1722,-1.1722,-1.1722,0,-1.1269,-1.1293,-1.1327,-1.1371,-1.1401,-1.1407,-1.1443,-1.1467,-1.1504,-1.1536,-1.1568,-1.1615,-1.1653,-1.1685,-1.1725,-1.1745,-1.175,-1.1755,-1.1753,-1.1758,-1.1727,-1.1717,-1.175,-1.175,-1.175,-1.175,-1.175,-1.175,-1.1292,-1.1335,-1.1351,-1.1407,-1.1431,-1.1472,-1.1492,-1.1519,-1.1545,-1.1596,-1.1628,-1.1648,-1.1681,-1.1723,-1.1759,-1.1767,-1.1781,-1.1784,-1.1794,-1.1764,-1.176,-1.1758,-1.1748,-1.1787,-1.1787,-1.1822,-1.1823,-1.1823]},{"header":{"parameterUnit":"m.s-1","parameterCategory":1,"la1":30.2991,"la2":30.254,"lo1":-89.0895,"lo2":-89.0444,"dy":0.0017,"dx":0.0017,"nx":28,"ny":28,"refTime":"2025-06-01T09:00:00:Z","depth":0,"parameterNumber":3,"parameterNumberName":"V-component_of_WINDS"},"data":[0,0,0,0,0,0,0,0,0,0,0,0,0,0,0,0,0,0,0,0,0,0,0,0,0,0,0,0,0,0,0,0,0,0,0,0,0,0,0,0,0,0,0,0,0,0,0,0,0,0,0,0,0,0,0,0,0,0,-1.9667,-1.9668,0,-1.9756,-1.9757,-1.9758,-1.9765,-1.9764,-1.9763,-1.9762,-1.9855,-1.9859,-1.9862,0,0,0,0,0,0,0,0,0,0,0,0,0,-1.9506,-1.9509,-1.9667,-1.9668,-1.9669,-1.9756,-1.9757,-1.9758,-1.9765,-1.9764,-1.9763,-1.9762,-1.9854,-1.9858,-1.9862,0,0,0,0,0,0,0,0,0,0,0,0,0,-1.9584,-1.951,-1.9667,-1.9683,-1.9686,-1.9755,-1.9757,-1.9758,-1.9766,-1.9764,-1.9763,-1.9761,-1.9853,-1.9858,-1.9863,-1.9923,0,0,-1.9878,-1.9881,0,0,0,0,0,0,0,0,-1.9579,-1.959,-1.968,-1.9682,-1.9685,-1.9748,-1.9734,-1.9814,-1.9766,-1.9735,-1.9762,-1.9761,-1.9821,-1.9829,-1.9848,-1.9927,-1.9931,-1.9879,-1.9882,-1.9884,-1.9886,0,0,0,0,0,0,0,-1.9574,-1.9586,-1.9702,-1.9681,-1.9684,-1.9687,-1.9696,-1.9749,-1.9785,-1.9738,-1.9739,-1.9749,-1.9822,-1.9844,-1.9851,-1.9933,-1.9879,-1.9883,-1.9886,-1.9888,-2.0066,-2.0067,0,0,0,0,0,0,-1.9565,-1.9581,-1.9699,-1.9705,-1.9627,-1.9691,-1.9702,-1.9729,-1.9785,-1.9792,-1.975,-1.9749,-1.9836,-1.9845,-1.9854,-1.9928,-1.9884,-1.9889,-1.9892,-2.0064,-2.0066,-2.0068,0,0,0,0,0,0,-1.9562,-1.9576,-1.9696,-1.9643,-1.9659,-1.9695,-1.9726,-1.9732,-1.9753,-1.9794,-1.98,-1.9765,-1.9835,-1.9847,-1.9906,-1.9931,-1.9891,-1.9896,-2.0062,-2.0065,-2.0067,-2.0077,0,0,0,0,0,0,-1.9557,-1.9574,-1.9597,-1.9644,-1.9662,-1.9745,-1.9728,-1.9735,-1.9762,-1.9761,-1.981,-1.9817,-1.9835,-1.9898,-1.9911,-1.9938,-1.99,-2.006,-2.0063,-2.0066,-2.0074,-2.0079,-2.0083,0,0,0,0,0,-1.9551,-1.9597,-1.9598,-1.9612,-1.9691,-1.9747,-1.9757,-1.9776,-1.9764,-1.9787,-1.9813,-1.9815,-1.9927,-1.9904,-1.9918,-1.9947,-2.0059,-2.0062,-2.0066,-2.0072,-2.0078,-2.0083,0,0,0,0,0,0,-1.9553,-1.9603,-1.9605,-1.9667,-1.9702,-1.9748,-1.9778,-1.9782,-1.9823,-1.9821,-1.9844,-1.9855,-1.9913,-1.9936,-1.991,-2.0008,-1.9991,-1.9998,-1.9991,-1.9997,-2.0002,-1.9995,-1.9904,0,0,0,0,0,-1.956,-1.9601,-1.9643,-1.9693,-1.9711,-1.9741,-1.9767,-1.9778,-1.9817,-1.9832,-1.9862,-1.99,-1.9943,-1.9972,-2.0014,-2.0078,-2.0089,-2.0105,-2.0109,-2.0113,-2.0118,-2.0154,-2.0161,-2.008,-2.008,-2.008,0,0,-1.9576,-1.9609,-1.9633,-1.9694,-1.9723,-1.9766,-1.9754,-1.9799,-1.9831,-1.9839,-1.9896,-1.992,-1.9963,-2.0025,-2.0053,-2.0046,-2.0143,-2.0118,-2.012,-2.0124,-2.0158,-2.0166,-2.0173,-2.0083,-2.0083,-2.0082,0,0,-1.9626,-1.9655,-1.97,-1.9729,-1.9773,-1.9793,-1.9804,-1.9849,-1.9864,-1.9922,-1.9929,-1.9967,-2.0042,-2.0072,-2.0098,-2.016,-2.0163,-2.0173,-2.0197,-2.0231,-2.0238,-2.0244,-2.0266,-2.0273,-2.0179,-2.0179,-2.0179,0,-1.9641,-1.9704,-1.9723,-1.9768,-1.9795,-1.9803,-1.9849,-1.9877,-1.9933,-1.9951,-1.9942,-2.0036,-2.0065,-2.0134,-2.0149,-2.017,-2.0183,-2.0167,-2.0235,-2.0241,-2.0247,-2.0268,-2.0277,-2.0179,-2.0179,-2.0179,-2.0179,0,-1.972,-1.9763,-1.9795,-1.9847,-1.9878,-1.9923,-1.995,-1.9979,-1.9988,-2.0009,-2.0068,-2.0104,-2.0153,-2.0171,-2.0181,-2.0241,-2.0235,-2.023,-2.0214,-2.0255,-2.0276,-2.0284,-2.0181,-2.018,-2.018,-2.018,0,0,-1.9773,-1.9835,-1.9847,-1.987,-1.9919,-1.9954,-2.0,-2.0048,-2.0072,-2.011,-2.015,-2.0213,-2.0208,-2.0237,-2.0251,-2.0281,-2.0328,-2.0272,-2.0274,-2.0281,-2.0397,-2.04,-2.0409,-2.033,-2.0332,-2.0333,-2.0393,0,-1.9829,-1.991,-1.9928,-1.9998,-2.0039,-2.0048,-2.0088,-2.0123,-2.0144,-2.0182,-2.0206,-2.025,-2.0241,-2.0259,-2.0289,-2.0315,-2.0351,-2.0311,-2.0367,-2.0369,-2.0356,-2.042,-2.0423,-2.0478,-2.0401,-2.0403,-2.0404,0,-1.9905,-1.9944,-2.0017,-2.0061,-2.0079,-2.0114,-2.016,-2.0196,-2.0236,-2.0249,-2.0281,-2.0291,-2.034,-2.0321,-2.0389,-2.0362,-2.0386,-2.0402,-2.0405,-2.0411,-2.0389,-2.0427,-2.0496,-2.0504,-2.0416,-2.0415,-2.0414,0,-1.9936,-2.0007,-2.006,-2.0081,-2.0133,-2.0158,-2.0181,-2.0219,-2.0246,-2.0286,-2.0305,-2.035,-2.0375,-2.041,-2.0433,-2.0417,-2.0499,-2.0482,-2.0512,-2.0511,-2.0529,-2.0527,-2.0602,-2.0545,-2.0544,-2.0544,-2.0544,0,-1.9996,-2.0041,-2.0075,-2.0108,-2.0159,-2.018,-2.023,-2.0253,-2.0287,-2.0325,-2.0336,-2.0371,-2.0399,-2.0438,-2.0456,-2.051,-2.0521,-2.0534,-2.0538,-2.0533,-2.0531,-2.0549,-2.0545,-2.0547,-2.0546,-2.0546,-2.0545,0,-2.004,-2.0064,-2.0123,-2.0167,-2.0179,-2.0215,-2.0253,-2.0286,-2.0307,-2.0355,-2.0367,-2.0401,-2.0448,-2.0474,-2.0534,-2.0546,-2.0606,-2.0608,-2.0592,-2.0594,-2.0622,-2.0619,-2.0711,-2.0724,-2.0658,-2.0659,-2.0659,0,-2.0076,-2.0111,-2.0158,-2.0184,-2.0207,-2.0249,-2.0277,-2.0299,-2.0328,-2.0376,-2.0403,-2.0451,-2.049,-2.0565,-2.0596,-2.0641,-2.0645,-2.0674,-2.0652,-2.0645,-2.0645,-2.0643,-2.0646,-2.0677,-2.0678,-2.0679,-2.0679,0,-2.0138,-2.0149,-2.0188,-2.0232,-2.0265,-2.0301,-2.0337,-2.0358,-2.0386,-2.0418,-2.0466,-2.0497,-2.0557,-2.0604,-2.0652,-2.0677,-2.0683,-2.0686,-2.0695,-2.069,-2.0679,-2.0685,-2.0602,-2.0683,-2.0683,-2.0683,-2.0682,-2.0682,-2.018,-2.0211,-2.0249,-2.0293,-2.0322,-2.0355,-2.0387,-2.0413,-2.0453,-2.0503,-2.0514,-2.0565,-2.0604,-2.0669,-2.0695,-2.0736,-2.073,-2.0744,-2.0747,-2.075,-2.0751,-2.0673,-2.0744,-2.0744,-2.0744,-2.0744,-2.0744,0,-2.0242,-2.0267,-2.0307,-2.0356,-2.0391,-2.0393,-2.0432,-2.0461,-2.0506,-2.0541,-2.058,-2.0635,-2.0681,-2.0715,-2.0762,-2.0788,-2.0792,-2.08,-2.0798,-2.0804,-2.0753,-2.074,-2.0796,-2.0796,-2.0796,-2.0795,-2.0795,-2.0795,-2.0279,-2.0331,-2.0346,-2.0414,-2.0439,-2.0488,-2.051,-2.0541,-2.057,-2.0631,-2.0668,-2.069,-2.0726,-2.0775,-2.0818,-2.0827,-2.0844,-2.0851,-2.086,-2.0813,-2.0807,-2.0802,-2.079,-2.0854,-2.0854,-2.0907,-2.0907,-2.0908]}]]